Voltar ao catálogo

STARLINK-3843

AtivoComunicaçõesVLEO
NORAD 52341·PAYLOAD·🇺🇸 United States

Lançado Apr 29, 2022 de Cape Canaveral Space Force Station

Loading…

Próximas Passagens (próximas 24 horas)

TLE

AtualizadoSource: CelesTrak SupGP

Época: Sep 14, 2026, 20:50 UTC

1 52341C 22045L   26257.86854167  .00747920  00000+0  24140-1 0  2572
2 52341  53.1595  77.8198 0001206  79.6463 240.5088 15.31210384    15

Acompanhe STARLINK-3843 em tempo real com AllMySat

Download on the App Store